Satellite: FENGYUN 1D
Catalog number: 27431
Epoch time:      103107.17780977
Element set:     262 
Inclination:       98.7560 deg
RA of node:       154.5857 deg
Eccentricity:    0.0014543
Arg of perigee:   324.1485 deg
Mean anomaly:      35.8840 deg
Mean motion:   14.09184621 rev/day
Decay rate:    9.0999E-007 rev/day^2
Epoch rev:            4748
Checksum:              337

Satellite: NOAA 17
Catalog number: 27453
Epoch time:      103107.49145511
Element set:     377 
Inclination:       98.7454 deg
RA of node:       178.3674 deg
Eccentricity:    0.0011867
Arg of perigee:   184.4426 deg
Mean anomaly:     175.6649 deg
Mean motion:   14.23330343 rev/day
Decay rate:    2.2100E-006 rev/day^2
Epoch rev:            4220
Checksum:              303

Satellite: HOT BIRD 6
Catalog number: 27499
Epoch time:      103104.14052927
Element set:     73 
Inclination:        0.0313 deg
RA of node:       303.0505 deg
Eccentricity:    0.0012771
Arg of perigee:   138.1476 deg
Mean anomaly:     184.1937 deg
Mean motion:    1.00273600 rev/day
Decay rate:    9.9999E-009 rev/day^2
Epoch rev:             237
Checksum:              282

Satellite: RUBIN 2
Catalog number: 27605
Epoch time:      103106.26309295
Element set:     109 
Inclination:       64.5516 deg
RA of node:        25.0702 deg
Eccentricity:    0.0034855
Arg of perigee:    87.2786 deg
Mean anomaly:     273.2300 deg
Mean motion:   14.71461428 rev/day
Decay rate:    3.5400E-006 rev/day^2
Epoch rev:            1715
Checksum:              279

Frase del giorno:
Nel lavoro scientifico, chi si rifiuta di andar oltre i fatti raramente 
riesce ad arrivare anche soltanto ai fatti (Thomas Henry Huxley)

73 Ciao Renzo.

li, gioved¨ 17 aprile 2003  16.22 (+ 2.00) UTC

  /___/____/
 /   /    /
     ||
     || I6KZR  Fermo, Italy
     || BBS    I6KZR@IK6WID.#AP.IMAR.ITA.EU
     || e_mail i6kzr@i6kzr.it
     || web http://www.i6kzr.it
     || TCPip: 44.134.243.003

Messaggio inviato con Sally V3.2.123 software packet per Windows 32bit.

<TO="I6KZR@IK6WID.#AP.IMAR.ITA.EU" TITLE="Old Istantrak Keplerians #107" CONTENT="">


Read previous mail | Read next mail


 17.09.2025 11:02:28lGo back Go up